Voltar ao catálogo

GONETS M 14

M24

AtivoComunicaçõesPO
NORAD 44905·PAYLOAD·🇷🇺 Russia

Lançado Dec 26, 2019 de Plesetsk Cosmodrome

Loading…

Próximas Passagens (próximas 24 horas)

TLE

AtualizadoSource: Space-Track

Época: Sep 14, 2026, 21:13 UTC

1 44905U 19096A   26257.88403859 -.00000034  00000-0 -31721-3 0  9990
2 44905  82.5263  29.0135 0012665 319.9036  40.1108 12.42872116304826

Acompanhe GONETS M 14 em tempo real com AllMySat

Download on the App Store